Location: Budapest
(47.5024°N, 19.0393°E)
Time: 04:36:15
(UTC+02:00)

X-37B - Visible Passes

Search period start: 29 May 2024 00:00
Search period end: 08 June 2024 00:00
Orbit: 259 x 286 km, 43.2° (Epoch: 06 October)

Date Brightness Start Highest point End Pass type
(mag) Time Alt. Az. Time Alt. Az. Time Alt. Az.
03 Jun 3.0 21:58:25 10° SW 21:58:43 12° SW 21:58:43 12° SW visible
04 Jun 2.2 21:24:14 10° SW 21:25:29 18° S 21:26:15 13° SE visible
06 Jun 2.9 21:48:13 10° SW 21:48:55 12° SSW 21:48:55 12° SSW visible
